Location: Chiroubles
(46.1812°N, 4.6660°E)
Time: 18:21:14
(UTC+00:00)

Vanguard 1 - Visible Passes

Search period start: 19 June 2021 00:00
Search period end: 29 June 2021 00:00
Orbit: 650 x 3832 km, 34.2° (Epoch: 18 June)

Date Brightness Start Highest point End Pass type
(mag) Time Alt. Az. Time Alt. Az. Time Alt. Az.
19 Jun 11.9 02:22:59 10° W 02:34:42 29° SW 02:42:01 10° SSE visible
19 Jun 12.5 21:50:31 10° WSW 22:11:49 53° S 22:25:32 10° E visible
20 Jun 12.0 00:16:57 10° W 00:34:48 49° SSW 00:45:04 10° SE visible
20 Jun 12.1 02:44:50 10° W 02:54:57 24° SW 03:01:42 10° S visible
20 Jun 13.0 19:47:48 10° SW 20:08:38 43° SSE 20:24:57 10° E visible
20 Jun 12.4 22:11:30 10° WSW 22:32:51 55° S 22:46:21 10° ESE visible
21 Jun 12.0 00:38:23 10° W 00:55:30 45° SSW 01:05:29 10° SE visible
21 Jun 12.3 03:07:07 10° W 03:15:05 18° SW 03:20:51 10° S visible
21 Jun 12.9 20:08:02 10° SW 20:29:36 48° SSE 20:46:05 10° E visible
21 Jun 12.4 22:32:39 10° WSW 22:53:52 55° S 23:07:06 10° ESE visible
22 Jun 12.1 00:59:55 10° W 01:16:06 40° SSW 01:25:44 10° SE visible
22 Jun 12.8 20:28:33 10° SW 20:50:38 52° SSE 21:07:08 10° E visible
22 Jun 12.3 22:53:54 10° WSW 23:14:51 55° S 23:27:47 10° ESE visible
23 Jun 12.2 01:21:33 10° W 01:36:31 34° SW 01:45:47 10° SSE visible
23 Jun 12.8 20:49:18 10° WSW 21:11:42 55° S 21:28:05 10° E visible
23 Jun 12.3 23:15:15 10° W 23:35:44 52° SSW 23:48:20 10° SE visible
24 Jun 12.3 01:43:24 10° W 01:56:48 28° SW 02:05:31 10° SSE visible
24 Jun 12.7 21:10:15 10° WSW 21:32:48 57° S 21:48:58 10° ESE visible
24 Jun 12.3 23:36:41 10° W 23:56:32 48° SSW 00:08:47 10° SE visible
25 Jun 12.5 02:05:35 10° W 02:16:56 22° SW 02:24:49 10° S visible
25 Jun 12.7 21:31:20 10° WSW 21:53:54 58° S 22:09:46 10° ESE visible
25 Jun 12.4 23:58:12 10° W 00:17:11 43° SSW 00:29:04 10° SE visible
26 Jun 12.7 02:28:29 10° W 02:36:56 16° SW 02:43:23 10° SSW visible
26 Jun 12.6 21:52:32 10° WSW 22:14:57 57° S 22:30:30 10° ESE visible
27 Jun 12.5 00:19:50 10° W 00:37:41 38° SW 00:49:08 10° SSE visible
27 Jun 12.8 02:53:35 10° WSW 02:56:47 11° WSW 02:59:41 10° SW visible
27 Jun 13.0 19:48:48 10° WSW 20:10:59 57° S 20:29:57 10° E visible
27 Jun 12.6 22:13:50 10° W 22:35:55 55° SSW 22:51:07 10° ESE visible
28 Jun 12.6 00:41:39 10° W 00:58:01 32° SW 01:06:11 18° S visible
28 Jun 12.9 20:09:41 10° WSW 20:32:07 59° S 20:50:54 10° ESE visible
28 Jun 12.6 22:35:12 10° W 22:56:48 51° SSW 23:11:00 12° SE visible
